Tracking 29489 objects as of 10-Sep-2024
HD Live streaming from Space Station
objects crossing your sky now

DELTA 1 DEB

Track DELTA 1 DEB now!
10-day predictions


NORAD ID: 10843
Int'l Code: 1976-077CP
Perigee: 1,344.6 km
Apogee: 1,528.0 km
Inclination: 101.6 °
Period: 114.4 minutes
Semi major axis: 7807 km
RCS: 0.0189 m2 (small)
Launch date: July 29, 1976
Source: United States (US)
Launch site: AIR FORCE WESTERN TEST RANGE (AFWTR)

Note: This is SATELLITE DEBRIS
Your satellite tracking list
Your tracking list is empty




NASA's NSSDC Master Catalog

Two Line Element Set (TLE):
1 10843U 76077CP  24252.87162727  .00000073  00000-0  66937-3 0  9992
2 10843 101.6155 217.5447 0117495 111.3829 307.9940 12.58491211207936
Source of the keplerian elements: AFSPC